Simultaneous Nadir Overpasses (SNOs) Predictions

Prediction of SNOs between GOES-14 and NOAA-20 Satellite Orbit:

Table of predicted SNOs for the next 14.0 days since TLE Epoch: 1/23/2022
Index Date Time (GOES-14) GOES-14 Lat,Lon NOAA-20 Lat,Lon Distance(km) Time Diff (sec)
1 01/23/2022 08:13:13 0.01,-104.60 -0.58,-101.86 311.61 80
2 01/24/2022 20:35:11 0.00,-104.28 -0.63,-107.16 327.78 80
3 01/25/2022 20:13:47 -0.00,-104.28 0.37,-102.63 188.33 80
4 01/27/2022 08:35:38 0.00,-104.60 0.77,-107.91 378.23 80
5 01/28/2022 08:19:35 0.01,-104.60 -0.29,-103.40 138.04 80
6 01/30/2022 20:20:09 -0.01,-104.29 0.03,-104.16 14.61 80
7 02/02/2022 08:23:16 0.02,-104.60 0.11,-104.92 36.57 80
8 02/03/2022 08:07:13 0.01,-104.61 -0.95,-100.40 480.03 80
9 02/04/2022 20:29:11 -0.01,-104.31 -0.30,-105.69 157.84 80
10 02/05/2022 20:07:47 -0.01,-104.31 0.70,-101.16 358.29 80
